Satellite: XATCOBEO
Catalog number: 38082
Epoch time:      12180.41768838
Element set:     351
Inclination:      069.4955 deg
RA of node:       289.7003 deg
Eccentricity:    0.0736145
Arg of perigee:   233.5108 deg
Mean anomaly:     119.6046 deg
Mean motion:   14.16750061 rev/day
Decay rate:     2.7905e-04 rev/day^2
Epoch rev:            1918
Checksum:              309

/EX
SB KEPS @ AMSAT  $ORB12180.W
Orbital Elements  12180.WEATHER

HR AMSAT ORBITAL ELEMENTS FOR WEATHER SATELLITES
FROM WA5QGD FORT WORTH,TX June 28, 2012
Send SUBSCRIBE KEPS/UNSUBSCRIBE KEPS to majordomo@amsat.org only
BID: ORB12180.W
TO ALL RADIO AMATEURS BT

Satellite: NOAA-10
Catalog number: 16969
Epoch time:      12179.81387686
Element set:    0978
Inclination:      098.5795 deg
RA of node:       208.6787 deg
Eccentricity:    0.0011706
Arg of perigee:   199.9976 deg
Mean anomaly:     160.0726 deg
Mean motion:   14.27560152 rev/day
Decay rate:       1.03e-06 rev/day^2
Epoch rev:           34138
Checksum:              357

Satellite: NOAA-11
Catalog number: 19531
Epoch time:      12180.38802658
Element set:     972
Inclination:      098.7315 deg
RA of node:       265.3115 deg
Eccentricity:    0.0010845
Arg of perigee:   188.1641 deg
Mean anomaly:     171.9375 deg
Mean motion:   14.14970707 rev/day
Decay rate:      -2.32e-06 rev/day^2
Epoch rev:           22609
Checksum:              304

Satellite: NOAA-12
Catalog number: 21263
Epoch time:      12179.92691770
Element set:    0469
Inclination:      098.7286 deg
RA of node:       201.5416 deg
Eccentricity:    0.0013893
Arg of perigee:   166.3394 deg
Mean anomaly:     193.8164 deg
Mean motion:   14.25503169 rev/day
Decay rate:        3.0e-08 rev/day^2
Epoch rev:           09808
Checksum:              320

Satellite: MET-3/5
Catalog number: 21655
Epoch time:      12179.78447370
Element set:    0001
Inclination:      082.5569 deg
RA of node:       144.7018 deg
Eccentricity:    0.0012123
Arg of perigee:   298.2990 deg
Mean anomaly:     061.6908 deg
Mean motion:   13.17034715 rev/day
Decay rate:       3.78e-06 rev/day^2
Epoch rev:           00304
Checksum:              293

Satellite: MET-2/21
Catalog number: 22782
Epoch time:      12179.71383151
Element set:    0457
Inclination:      082.5466 deg
RA of node:       024.1604 deg
Eccentricity:    0.0023841
Arg of perigee:   121.0052 deg
Mean anomaly:     239.3454 deg
Mean motion:   13.83684258 rev/day
Decay rate:       -8.0e-08 rev/day^2
Epoch rev:           95062
Checksum:              289

Satellite: OKEAN-4
Catalog number: 23317
Epoch time:      12179.95617072
Element set:    0959
Inclination:      082.5396 deg
RA of node:       021.1376 deg
Eccentricity:    0.0020472
Arg of perigee:   320.9640 deg
Mean anomaly:     039.0096 deg
Mean motion:   14.83820591 rev/day
Decay rate:       3.05e-06 rev/day^2
Epoch rev:           95640
Checksum:              302

Satellite: NOAA-14
Catalog number: 23455
Epoch time:      12179.94488824
Element set:    0951
Inclination:      098.8274 deg
RA of node:       263.3089 deg
Eccentricity:    0.0008706
Arg of perigee:   293.0376 deg
Mean anomaly:     066.9874 deg
Mean motion:   14.13904971 rev/day
Decay rate:       -5.2e-07 rev/day^2
Epoch rev:           90231
Checksum:              339

Satellite: NOAA-15
Catalog number: 25338
Epoch time:      12179.86928436
Element set:    0314
Inclination:      098.6907 deg
RA of node:       166.6760 deg
Eccentricity:    0.0011683
Arg of perigee:   078.3716 deg
Mean anomaly:     281.8785 deg
Mean motion:   14.25086288 rev/day
Decay rate:        7.0e-07 rev/day^2
Epoch rev:           73437
Checksum:              348

Satellite: RESURS
Catalog number: 25394
Epoch time:      12180.43100994
Element set:     122
Inclination:      098.3195 deg
RA of node:       168.0757 deg
Eccentricity:    0.0001027
Arg of perigee:   159.6428 deg
Mean anomaly:     200.4801 deg
Mean motion:   14.24289769 rev/day
Decay rate:       -3.4e-07 rev/day^2
Epoch rev:           72600
Checksum:              284

Satellite: FENGYUN1
Catalog number: 25730
Epoch time:      12180.50042908
Element set:     637
Inclination:      098.8467 deg
RA of node:       139.2843 deg
Eccentricity:    0.0019548
Arg of perigee:   335.4205 deg
Mean anomaly:     024.6031 deg
Mean motion:   14.09628211 rev/day
Decay rate:       9.02e-06 rev/day^2
Epoch rev:           67620
Checksum:              286

Satellite: OKEAN-0
Catalog number: 25860
Epoch time:      12179.91673767
Element set:    0673
Inclination:      097.9366 deg
RA of node:       142.3404 deg
Eccentricity:    0.0000872
Arg of perigee:   108.4132 deg
Mean anomaly:     251.7172 deg
Mean motion:   14.74226442 rev/day
Decay rate:       1.96e-06 rev/day^2
Epoch rev:           69615
Checksum:              311

Satellite: NOAA-16
Catalog number: 26536
Epoch time:      12179.87325121
Element set:    0799
Inclination:      099.0931 deg
RA of node:       222.1609 deg
Eccentricity:    0.0011157
Arg of perigee:   057.2595 deg
Mean anomaly:     302.9616 deg
Mean motion:   14.12753991 rev/day
Decay rate:       2.36e-06 rev/day^2
Epoch rev:           60654
Checksum:              315

